DW6198 Weather Reports


time (UTC)temp
C
wind
direction
speed
KPH
gust
KPH
rain 1hr
cm
rain 24hr
cm
rain mn
cm
humidity
%
barometer
mb
20260505060058 16 72 3.2 9.7 0.00 0.00 0.00 44 1009.9
20260505054556 15 99 0.0 6.4 0.00 0.00 0.00 47 1009.9
20260505053050 15 94 0.0 6.4 0.00 0.00 0.00 49 1009.9
20260505051546 13 145 0.0 8.0 0.00 0.00 0.00 50 1010.1
20260505050120 13 138 0.0 8.0 0.00 0.00 0.00 50 1010.2
20260505041552 12 131 0.0 6.4 0.00 0.00 0.00 53 1010.4
20260505040052 12 137 0.0 3.2 0.00 0.00 0.00 52 1010.5
20260505034539 12 160 0.0 11.3 0.00 0.00 0.00 52 1010.4
20260505033044 12 92 0.0 1.6 0.00 0.00 0.00 52 1010.6
20260505031544 12 114 0.0 4.8 0.00 0.00 0.00 53 1010.8
20260505030039 12 150 0.0 1.6 0.00 0.00 0.00 53 1010.9
20260505024532 13 95 0.0 3.2 0.00 0.00 0.00 51 1011.0
20260505023039 13 86 0.0 3.2 0.00 0.00 0.00 48 1011.1
20260505021529 13 153 0.0 6.4 0.00 0.00 0.00 49 1011.3
20260505020029 13 108 0.0 1.6 0.00 0.00 0.00 49 1011.4
20260505014526 13 108 0.0 1.6 0.00 0.00 0.00 47 1011.4
20260505013025 13 109 0.0 3.2 0.00 0.00 0.00 47 1011.6
20260505011529 13 91 0.0 0.0 0.00 0.00 0.00 53 1011.7
20260505010023 12 38 0.0 1.6 0.00 0.00 0.00 56 1011.8
20260505004532 13 118 0.0 1.6 0.00 0.00 0.00 53 1011.9
20260505003018 13 106 0.0 1.6 0.00 0.00 0.00 52 1012.0
20260505001516 13 106 0.0 0.0 0.00 0.00 0.00 52 1012.1
20260505000026 13 106 0.0 1.6 0.00 0.00 0.00 52 1012.4
20260504234512 13 106 0.0 1.6 0.00 0.00 0.00 53 1012.4
20260504233010 12 106 0.0 0.0 0.00 0.00 0.00 56 1012.5
20260504231508 13 106 0.0 0.0 0.00 0.00 0.00 56 1012.7
20260504230011 13 106 0.0 0.0 0.00 0.00 0.00 57 1012.9
20260504224503 12 106 0.0 0.0 0.00 0.00 0.00 58 1013.0
20260504223100 13 106 0.0 1.6 0.00 0.00 0.00 58 1013.0
20260504221558 13 106 0.0 1.6 0.00 0.00 0.00 57 1013.2
20260504220059 13 106 0.0 1.6 0.00 0.00 0.00 58 1013.2
20260504214554 13 102 0.0 1.6 0.00 0.00 0.00 60 1013.3
20260504213125 13 102 0.0 1.6 0.00 0.00 0.00 59 1013.3
20260504211556 13 99 0.0 1.6 0.00 0.00 0.00 62 1013.4
20260504210053 13 86 0.0 0.0 0.00 0.00 0.00 60 1013.4
20260504204555 13 86 0.0 0.0 0.00 0.00 0.00 63 1013.4
20260504203112 13 86 0.0 0.0 0.00 0.00 0.00 65 1013.4
20260504201551 13 86 0.0 0.0 0.00 0.00 0.00 67 1013.3
20260504200052 13 86 0.0 0.0 0.00 0.00 0.00 68 1013.3
20260504194601 13 86 0.0 0.0 0.00 0.00 0.00 69 1013.2
20260504193058 14 86 0.0 0.0 0.00 0.00 0.00 69 1013.2
20260504191549 14 86 0.0 0.0 0.00 0.00 0.00 68 1013.1
20260504190100 14 86 0.0 0.0 0.00 0.00 0.00 66 1013.1
20260504184556 15 86 0.0 0.0 0.00 0.00 0.00 65 1012.9
20260504183046 15 86 0.0 0.0 0.00 0.00 0.00 64 1012.7
20260504181545 16 86 0.0 0.0 0.00 0.00 0.00 63 1012.7
20260504180047 16 86 0.0 1.6 0.00 0.00 0.00 62 1012.7
20260504174544 17 86 0.0 0.0 0.00 0.00 0.00 61 1012.6
20260504173049 17 86 0.0 1.6 0.00 0.00 0.00 60 1012.6
20260504171542 18 84 0.0 0.0 0.00 0.00 0.00 58 1012.5
20260504081501 17 121 3.2 12.9 0.00 0.00 0.00 50 1015.4